Weather in Nyrob

Russia / Perm Krai     60°43′59″N   56°43′09″E
temp.,
°C
wind,
m/s
gust,
m/s
humid.,
%
clouds,
%
prec.,
mm/h
press.,
hPa
HPBL,
m
22 january, fri
fri2223:00−21ese129893 0.2 101329
02:00−22e129788 0.1 101447
05:00−22e249788 0.1 1016101
08:00−25ene229478 0.0 101744
11:00−27ene228949 0.0 101942
14:00−22ene249197 0.0 1021241
17:00−25nne239454 0.0 102424
20:00−28ene11920 0.0 102719
23 january, sat
sat2323:00−29ese11900 0.0 102919
02:00−29se129389 0.0 103019
05:00−30se129591 0.0 103219
08:00−29sse2394100 0.0 1032102
11:00−28sse2496100 0.0 1032169
14:00−25se2495100 0.0 1031233
17:00−24se2593100 0.0 1030222
20:00−24ese2690100 0.0 1029160
24 january, sun
sun2423:00−22ese2588100 0.0 1028136
02:00−23ese228898 0.0 102860
05:00−23ese248998 0.0 102993
08:00−23ese278999 0.0 1029172
11:00−22se3118899 0.0 1029379
14:00−20se41197100 0.4 1028445
17:00−19sse41496100 1.1 1027525
20:00−18sse51196100 0.9 1027521
25 january, mon
mon2523:00−19sse4996100 1.4 1027471
02:00−19sse3896100 0.2 1027371
05:00−19sse3696100 0.4 1027300
08:00−19sse2797100 0.1 1028266
11:00−18sse2696100 0.2 1028238
14:00−15sse2595100 0.1 1027257
17:00−14sse2696100 0.4 1027236
20:00−13se279698 0.3 1027237
26 january, tue
tue2623:00−11sse279699 1.0 1025246
02:00−10sse259693 0.3 1024158
05:00−7sse249695 0.6 1023150
08:00−4sse2597100 0.3 1023146
11:00−1s2799100 1.3 1023251
14:00−2ssw4995100 0.3 1023479
17:00−5ssw4995100 0.3 1023616
20:00−4s3996100 0.3 1023496